Regional Weather Roundup
Issued by NWS Midland/Odessa, TX

Skip options and go directly to product.
Home | Oldest Version | Previous Version | Current Version | All | Text Only | Save Text | Print | Product List | Glossary Off

Skip product version selection by date and time.   

458
ASUS44 KMAF 202010
RWRMAF
MIDLAND AREA WEATHER ROUNDUP
NATIONAL WEATHER SERVICE MIDLAND TX
300 PM CDT WED AUG 20 2014

...IN SOUTHWEST TEXAS AND SOUTHEAST NEW MEXICO...

CITY           SKY/WX    TMP DP  RH WIND       PRES   REMARKS
ALPINE         PTSUNNY   82  60  46 SW9       30.11F
ANDREWS        PTSUNNY   91  62  37 S10G21    29.94F
ARTESIA        MOSUNNY   91  50  24 SE13G20   29.92S
BIG SPRING     SUNNY     94  62  33 S16G22    29.95F
CARLSBAD       SUNNY     93  55  27 S8        29.90F
DRYDEN           N/A     97  65  34 MISG      29.90F
FORT STOCKTON  PTSUNNY   90  61  37 S10G18    29.94F THUNDER
GUAD PASS      CLOUDY    82  53  36 SW23G36   30.10S
HOBBS          MOSUNNY   91  54  27 S14G23    29.96F
MARFA          PTSUNNY   81  57  44 W7        30.11F
MIDLAND AIRPK  MOSUNNY   94  61  33 S15       29.93F
MIDLAND INTL   SUNNY     94  64  37 S17       29.93F
ODESSA         MOSUNNY   92  61  35 S13G23    29.94F
PECOS          MOSUNNY   96  55  25 S9        29.90F
PRESIDIO       FAIR      90  61  37 CALM      29.95F
SEMINOLE       MOSUNNY   94  56  27 S13G22    29.95F
SNYDER         SUNNY     92  66  42 S15G22    29.94F
WINK           SUNNY     96  55  25 S10G22    29.90F
$$
...OTHER STATIONS IN TEXAS...

CITY           SKY/WX    TMP DP  RH WIND       PRES   REMARKS
ABILENE        SUNNY     94  65  38 S15G26    29.93F
AMARILLO       MOSUNNY   94  58  29 S15G26    29.92F
AUSTIN         MOSUNNY   97  65  34 S16       29.91F
BROWNSVILLE    MOSUNNY   95  73  48 S22G35    29.92F HX 104
CORPUS CHRISTI PTSUNNY   95  74  50 SE25G35   29.92F HX 105
DALLAS FTW     MOSUNNY   95  67  39 S12G26    29.93F
DEL RIO        SUNNY     96  65  35 SE17G25   29.86F
EL PASO        MOSUNNY   87  54  32 VRB3      30.00F
HOUSTON INT    CLOUDY    85  68  56 S7        29.97S THUNDER
LUBBOCK        MOSUNNY   93  61  34 S17G23    29.93F
SAN ANGELO     MOSUNNY   93  66  40 S14G25    29.93F
SAN ANTONIO    MOSUNNY   98  65  33 S15G22    29.93F HX 101
WACO           SUNNY     97  66  36 S15       29.93F HX 100
WICHITA FALLS  NOT AVBL
$$
...OTHER LOCATIONS IN NEW MEXICO...

CITY           SKY/WX    TMP DP  RH WIND       PRES   REMARKS
ALAMAGORDO     SUNNY     84  54  34 SW3       30.01F
ALBUQUERQUE    MOSUNNY   84  44  24 NW10G16   30.07F
CANNON AFB     MOSUNNY   91  54  28 SW7G18    29.96F
CLOVIS           N/A     91  54  27 S23G30    29.97F
HOLLOMAN AFB   MOSUNNY   88  54  31 N1        29.99F
ROSWELL        SUNNY     92  60  34 NE10      29.91F
RUIDOSO        PTSUNNY   73  54  49 NW10      30.19F
SANTA FE       PTSUNNY   81  48  31 SW13G18   30.10F
TRUTH OR CONSE MOSUNNY   85  46  25 MISG      30.05F
TUCUMCARI      MOSUNNY   97  51  21 SW16G25   29.90F
$$

USA.gov is the U.S. government's official web portal to all federal, state and local government web resources and services.